Вернуться в каталог

STARLINK-32446

АктивенСвязьVLEO
NORAD 61262·PAYLOAD·🇺🇸 United States

Запущен Sep 25, 2024 с Vandenberg Space Force Base

Loading…

Ближайшие Пролёты (ближайшие 24 часа)

TLE

СвежийSource: CelesTrak SupGP

Эпоха: Sep 14, 2026, 22:17 UTC

1 61262C 24175V   26257.92895833  .00019488  00000+0  57597-3 0  2577
2 61262  53.1600  31.4804 0001239  80.9017  48.7711 15.34370038    17

Отслеживайте STARLINK-32446 в реальном времени с AllMySat

Download on the App Store